Location: Llanwnen
(52.1000°N, 4.1500°W)
Time: 02:08:09
(UTC+00:00)

Daily predictions for brighter satellites

Satellite Brightness Start Highest point End
(mag) Time Altitude Azimuth Time Altitude Azimuth Time Altitude Azimuth
ATLAS 2AS CENTAUR R/B 4.3 01:59:43 34° NNE 01:59:43 34° NNE 02:04:26 10° NE
Cosmos 2344 4.5 02:39:05 45° N 02:39:05 45° N 02:47:38 10° ENE
Cosmos 2333 Rocket 4.2 02:55:44 24° NNE 02:55:44 24° NNE 02:57:55 10° NNE
USA 215 4.4 02:50:04 10° ENE 02:54:03 37° E 02:54:03 37° E
Cosmos 2322 Rocket 4.4 03:11:58 18° N 03:11:58 18° N 03:13:59 10° NNE
Cosmos 2237 Rocket 3.7 03:19:52 33° NE 03:19:52 33° NE 03:22:58 10° NE
CZ-4C R/B 3.5 03:21:53 39° NE 03:21:53 39° NE 03:25:50 10° NE
Cosmos 2219 Rocket 3.8 03:26:42 28° NNE 03:26:42 28° NNE 03:29:27 10° NNE
Cosmos 1943 Rocket 3.3 03:37:57 39° E 03:37:57 39° E 03:42:00 10° ESE
Cosmos 2360 Rocket 4.1 03:39:40 20° N 03:39:40 20° N 03:42:12 10° NNE
Lacrosse 5 4.0 03:45:19 19° ESE 03:45:19 19° ESE 03:46:46 10° ESE
CZ-2D R/B 4.5 03:39:39 10° N 03:40:21 13° N 03:40:21 13° N
ATLAS 2AS CENTAUR R/B 4.1 03:47:07 28° NNW 03:49:58 36° N 03:56:50 10° ENE
ATLAS CENTAUR R/B 3.4 03:52:19 29° ENE 03:52:19 29° ENE 03:54:38 10° NE
COSMOS 2428 4.1 03:52:41 30° N 03:52:41 30° N 03:56:05 10° NNE
Nadezhda 3 Rocket 4.2 04:00:11 65° N 04:00:11 65° N 04:05:35 10° N
MSX 4.3 03:54:00 10° NNE 03:59:40 56° E 04:00:16 53° SE
CZ-2C R/B 4.0 03:54:57 10° NNE 03:59:41 34° E 04:01:40 25° SE
SL-16 R/B 2.6 04:01:35 58° ESE 04:01:35 58° ESE 04:07:02 10° NE
Cosmos 2251 Rocket 4.2 04:03:08 52° E 04:03:08 52° E 04:08:04 10° NNE
ADEOS II 3.9 03:59:50 10° N 04:01:44 21° N 04:01:44 21° N
IDEFIX/ARIANE 42P 3.2 04:01:37 10° NNE 04:05:34 52° NNE 04:05:34 52° NNE
Cosmos 1980 4.4 04:08:56 46° N 04:08:56 46° N 04:13:11 10° NNE
BREEZE-M DEB (TANK) 3.7 04:09:15 48° SE 04:09:15 48° SE 04:16:26 10° ESE
Cosmos 2369 Rocket 2.7 04:06:40 36° N 04:08:53 59° NE 04:14:31 10° SE
SL-16 R/B 4.4 04:11:14 13° NNW 04:11:31 13° NNW 04:14:16 10° NNE
NOSS 0 Rocket 4.3 04:12:43 51° NNW 04:12:43 51° NNW 04:18:02 10° NNE
Resurs 1-4 Rocket 4.5 04:17:47 10° NNW 04:18:11 11° NNW 04:18:11 11° NNW
NOSS 2-1 (E) 4.3 04:35:42 42° ENE 04:35:42 42° ENE 04:38:31 10° NE
ARIANE 5 R/B 4.3 04:31:18 10° N 04:33:04 19° NNW 04:33:04 19° NNW
Cosmos 2333 Rocket 3.7 04:37:44 23° NNW 04:37:44 23° NNW 04:41:53 10° NNE
ADEOS 3.5 04:33:26 10° NNE 04:38:43 85° ESE 04:39:45 59° S
USA 215 3.2 04:33:11 10° ENE 04:39:44 75° NNW 04:41:24 52° W
Meteor 2-3 Rocket 3.7 04:33:57 10° NNW 04:39:45 83° ENE 04:45:33 10° SSE
Cosmos 1842 Rocket 4.3 04:40:30 27° SSE 04:42:44 54° E 04:47:07 10° NNE
Cosmos 921 Rocket 3.8 04:40:09 11° NNW 04:44:22 52° ENE 04:48:39 10° SE
BREEZE M DEB (TANK) 3.5 04:45:29 48° SE 04:45:29 48° SE 04:49:57 10° E
Cosmos 1455 4.5 04:53:22 15° N 04:53:22 15° N 04:54:10 10° N
Cosmos 2322 Rocket 4.5 04:53:53 10° NNW 04:55:53 12° N 04:57:53 10° NNE
Meteor 2-10 Rocket 3.5 04:58:00 57° W 04:58:24 59° WNW 05:03:29 10° N
Cosmos 2221 2.9 04:56:37 14° S 05:00:10 61° E 05:04:27 10° NNE
Cosmos 1934 Rocket 4.5 04:54:50 10° NNW 04:59:42 38° WNW 04:59:42 38° WNW
SJ-6F 4.3 04:56:33 10° NNE 05:00:42 89° WNW 05:01:14 67° SSW
COSMO-SKYMED 1 3.1 04:57:16 10° SSE 05:01:32 59° ENE 05:05:51 10° N
Cosmos 2237 Rocket 3.1 05:01:42 31° NW 05:01:53 31° NW 05:06:54 10° NNE
STARLINK-1162 3.7 05:02:49 51° ENE 05:02:49 51° ENE 05:05:24 10° E
STARLINK-1157 3.6 05:04:49 55° ENE 05:04:49 55° ENE 05:07:28 10° E
STARLINK-1159 3.5 05:06:59 58° ENE 05:06:59 58° ENE 05:09:45 10° E
CZ-4C R/B 3.0 05:07:04 33° WNW 05:08:42 39° NNW 05:14:56 10° NE
STARLINK-1171 3.3 05:09:13 63° ENE 05:09:13 63° ENE 05:12:05 10° E
Cosmos 2219 Rocket 3.9 05:08:25 18° NW 05:09:09 18° NNW 05:13:00 10° NNE
STARLINK-1155 3.2 05:11:18 66° NE 05:11:18 66° NE 05:14:15 10° E
Meteor 1-27 4.2 05:07:17 10° S 05:12:49 82° E 05:18:26 10° NNE
STARLINK-1166 3.1 05:13:32 70° NE 05:13:32 70° NE 05:16:35 10° E
STARLINK-1179 3.7 05:15:26 41° E 05:15:26 41° E 05:17:21 10° E
Meteor 1-31 Rocket 2.6 05:11:11 10° NNE 05:15:01 89° ENE 05:16:45 32° SSW
STARLINK-1176 3.7 05:15:58 43° E 05:15:58 43° E 05:17:57 10° E
STARLINK-1165 3.0 05:15:41 73° NNE 05:15:41 73° NNE 05:18:50 10° E
STARLINK-1169 2.9 05:17:50 75° N 05:17:50 75° N 05:21:04 10° E
STARLINK-1178 2.9 05:20:00 75° N 05:20:03 76° N 05:23:19 10° E
Cosmos 1943 Rocket 2.5 05:19:34 37° W 05:20:27 40° WSW 05:25:32 10° S
CZ-4B R/B 2.6 05:18:02 10° NNE 05:21:46 84° ESE 05:24:16 19° SSW
STARLINK-1120 2.9 05:22:04 73° NNW 05:22:13 76° N 05:25:29 10° E
Cosmos 2360 Rocket 4.4 05:21:52 10° NNW 05:23:52 12° N 05:25:52 10° N
Lacrosse 5 2.8 05:24:33 28° SW 05:24:33 28° SW 05:28:29 10° S
STARLINK-1131 2.9 05:24:16 70° NW 05:24:30 77° N 05:27:46 10° E
SKYMED 3 4.4 05:21:15 10° SSE 05:25:36 83° WSW 05:29:58 10° NNW
Cosmos 1605 Rocket 4.4 05:21:08 10° NNW 05:26:50 39° W 05:32:26 10° SSW
STARLINK-1190 2.9 05:26:30 67° NW 05:26:50 77° N 05:30:06 10° E
ATLAS CENTAUR R/B 2.3 05:28:31 33° WNW 05:29:24 37° NW 05:33:28 10° NNE
Cosmos 2016 Rocket 4.2 05:26:38 10° N 05:32:53 75° ENE 05:39:12 10° SSE
ALOS 2.7 05:28:23 10° NNE 05:33:04 65° ESE 05:37:42 10° S
NOSS 2-1 (C) 3.7 05:33:23 36° WNW 05:33:59 39° NNW 05:37:52 10° NE
PAYLOAD A 4.4 05:32:34 10° N 05:37:02 37° WNW 05:38:55 27° WSW
CZ-2C R/B 2.9 05:33:06 10° N 05:38:01 43° WNW 05:41:04 21° SW
NOSS 2-1 (D) 3.8 05:37:22 33° WNW 05:38:06 37° NNW 05:41:58 10° NE
Cosmos 1869 3.1 05:38:21 10° SSW 05:42:21 77° WNW 05:46:19 10° N
Cosmos 1400 Rocket 4.3 05:38:44 10° SSE 05:42:30 39° E 05:46:21 10° NNE
ATLAS 2AS CENTAUR R/B 3.5 05:34:50 10° NW 05:42:32 56° NNE 05:49:40 10° ESE
Cosmos 1356 Rocket 4.3 05:42:42 27° WNW 05:42:42 27° WNW 05:46:13 10° N
FENGYUN 3A 3.9 05:37:29 10° NNE 05:42:57 76° ESE 05:48:24 10° S
Cosmos 1633 2.5 05:39:29 10° NNW 05:43:06 63° W 05:46:42 10° S
Sich 1 3.0 05:38:51 10° N 05:43:10 84° E 05:47:29 10° SSE
Cosmos 1805 Rocket 3.4 05:39:02 10° NNW 05:43:23 73° W 05:47:41 10° S
STARLINK-1118 3.8 05:42:59 26° S 05:43:40 31° SSE 05:45:57 10° E
Cosmos 2251 Rocket 4.3 05:43:37 26° W 05:45:28 32° NW 05:50:15 10° NNE
Meteor PRIRODA 3.5 05:41:52 10° N 05:45:33 70° WNW 05:49:12 10° SSW
SL-16 R/B 2.9 05:43:29 25° W 05:45:54 35° NW 05:51:05 10° NNE
IDEFIX/ARIANE 42P 3.9 05:42:11 10° N 05:45:54 20° NW 05:46:23 20° WNW
H-2A R/B 2.7 05:42:21 10° N 05:46:37 52° WNW 05:50:57 10° SW
ADEOS Rocket 3.5 05:42:50 10° SSE 05:49:12 74° ENE 05:56:22 10° NNW
SKYMED 2 3.7 05:45:27 10° S 05:49:40 50° W 05:53:55 10° NNW
NOSS 2-2 (D) 4.4 05:45:13 14° NW 05:50:04 80° SW 05:57:39 10° SE
STARLINK-1129 2.9 05:48:55 34° WNW 05:50:13 86° NNE 05:53:30 10° E
Cosmos 1500 Rocket 4.2 05:46:31 10° NNW 05:50:28 32° W 05:54:23 10° SSW
TELKOM 3 3.3 05:50:43 41° SSW 05:50:46 41° S 05:52:48 10° ESE
STARLINK-1134 2.9 05:51:01 32° WNW 05:52:23 87° N 05:55:42 10° ESE
Cosmos 2369 Rocket 2.9 05:48:33 14° NW 05:52:38 31° WSW 05:57:32 10° SSW
STARLINK-1135 2.9 05:53:25 30° WNW 05:54:54 89° N 05:58:13 10° ESE
Aureole 2 Rocket 4.3 05:57:41 13° SW 05:57:41 13° SW 05:58:17 10° SSW
STARLINK-1141 2.9 05:55:41 29° WNW 05:57:15 90° NNE 06:00:33 10° ESE
STARLINK-1140 2.9 05:57:57 27° WNW 05:59:37 89° S 06:02:55 10° ESE
Cosmos 1727 Rocket 4.2 05:53:42 10° SW 05:59:37 46° WNW 06:05:33 10° N
Cosmos 1023 Rocket 4.5 05:55:03 10° SSW 06:00:21 85° WNW 06:05:40 10° NNE
STARLINK-1149 2.5 05:59:44 32° W 06:00:52 79° SSW 06:03:37 10° ESE
Cosmos 1656 Rocket 3.9 05:55:40 10° NW 06:01:08 51° WSW 06:06:37 10° S
Cosmos 2173 Rocket 4.1 05:55:09 10° NNW 06:01:16 53° W 06:07:15 10° SSW
STARLINK-1156 2.9 06:00:12 26° WNW 06:01:57 87° S 06:05:15 10° ESE
Cosmos 1603 3.7 05:56:22 10° SW 06:02:03 67° NW 06:07:44 10° NNE
STARLINK-1148 2.9 06:02:29 24° WNW 06:04:19 86° SSW 06:07:38 10° ESE
STARLINK-1153 2.6 06:03:20 26° W 06:04:48 81° SSW 06:07:44 10° ESE
STARLINK-1180 2.6 06:03:32 26° W 06:05:01 81° SSW 06:07:58 10° ESE
STARLINK-1174 2.6 06:03:59 26° W 06:05:28 81° SSW 06:08:24 10° ESE
STARLINK-1139 2.6 06:04:13 26° W 06:05:42 80° SSW 06:08:38 10° ESE
Cosmos 1943 3.1 06:00:15 10° SW 06:05:52 76° WNW 06:11:34 10° NNE
STARLINK-1133 2.6 06:04:26 26° W 06:05:56 80° SSW 06:08:52 10° ESE
STARLINK-1151 2.6 06:04:39 26° W 06:06:10 80° SSW 06:09:05 10° ESE
Okean O Rocket 2.2 06:01:53 10° NNE 06:06:14 61° ESE 06:10:32 10° S
STARLINK-1158 2.9 06:04:43 23° WNW 06:06:40 85° SSW 06:09:58 10° ESE
STARLINK-1160 2.6 06:05:18 25° W 06:06:50 80° SSW 06:09:46 10° ESE
STARLINK-1161 2.6 06:05:30 25° W 06:07:02 79° SSW 06:09:58 10° ESE
STARLINK-1145 2.6 06:05:44 25° W 06:07:17 79° SSW 06:10:13 10° ESE
CZ-4B DEB 4.2 06:01:56 10° NNE 06:07:28 89° ESE 06:12:57 10° SSW
STARLINK-1172 2.6 06:05:55 25° W 06:07:29 79° SSW 06:10:25 10° ESE
Shenzhou-11 Module 4.4 06:07:03 10° S 06:07:51 11° S 06:08:39 10° SSE
STARLINK-1182 2.6 06:06:22 24° W 06:07:57 79° SSW 06:10:53 10° ESE
STARLINK-1164 2.6 06:06:35 24° W 06:08:11 79° SSW 06:11:06 10° ESE
STARLINK-1168 2.6 06:06:48 24° W 06:08:24 78° SSW 06:11:19 10° ESE
STARLINK-1183 2.6 06:07:27 24° W 06:09:04 78° SSW 06:12:00 10° ESE
STARLINK-1181 2.6 06:07:39 24° W 06:09:17 78° SSW 06:12:13 10° ESE
STARLINK-1196 2.6 06:08:18 23° W 06:09:58 77° SSW 06:12:54 10° ESE
SJ-12 4.0 06:06:09 10° N 06:10:13 56° WNW 06:14:17 10° SSW
STARLINK-1186 2.6 06:08:44 23° W 06:10:24 77° SSW 06:13:20 10° ESE
STARLINK-1185 2.6 06:08:57 23° W 06:10:38 77° SSW 06:13:34 10° ESE
STARLINK-1175 2.6 06:09:10 23° W 06:10:52 76° SSW 06:13:47 10° ESE
STARLINK-1147 2.6 06:09:24 22° W 06:11:05 76° SSW 06:14:01 10° ESE
STARLINK-1132 2.6 06:09:33 23° W 06:11:06 71° SSW 06:13:54 10° ESE
STARLINK-1146 2.7 06:09:35 22° W 06:11:18 76° SSW 06:14:14 10° ESE
STARLINK-1152 2.7 06:09:51 22° W 06:11:34 76° SSW 06:14:30 10° ESE
STARLINK-1195 2.7 06:10:03 22° W 06:11:47 76° SSW 06:14:42 10° ESE
STARLINK-1137 2.6 06:10:16 22° W 06:11:59 76° SSW 06:14:55 10° ESE
STARLINK-1142 2.7 06:10:29 22° W 06:12:13 75° SSW 06:15:08 10° ESE
STARLINK-1127 2.7 06:10:41 22° W 06:12:25 75° SSW 06:15:21 10° ESE
Cosmos 1151 Rocket 4.1 06:08:20 10° SSE 06:12:29 48° E 06:16:42 10° NNE
STARLINK-1184 2.7 06:10:54 22° W 06:12:39 75° SSW 06:15:35 10° ESE
STARLINK-1193 2.7 06:11:07 21° W 06:12:53 75° SSW 06:15:48 10° ESE
STARLINK-1194 2.7 06:11:21 21° W 06:13:07 75° SSW 06:16:02 10° ESE
STARLINK-1150 2.6 06:11:45 22° W 06:13:22 69° SSW 06:16:10 10° ESE
CZ-4B R/B 3.5 06:08:37 10° NNE 06:13:58 69° ESE 06:19:14 10° S
STARLINK-1163 2.6 06:12:58 21° W 06:14:39 68° SSW 06:17:26 10° ESE
STARLINK-1177 2.6 06:14:39 20° W 06:16:23 66° SSW 06:19:09 10° ESE
STARLINK-1098 4.5 06:12:30 10° SW 06:16:25 46° SSE 06:20:21 10° ENE
STARLINK-1173 2.6 06:14:42 20° W 06:16:27 66° SSW 06:19:14 10° ESE
STARLINK-1167 2.6 06:15:07 20° W 06:16:54 66° SSW 06:19:41 10° ESE
Cosmos 1862 3.5 06:13:37 10° NNW 06:17:26 47° W 06:21:15 10° SSW
Cosmos 2100 Rocket 4.4 06:12:42 10° NNW 06:18:21 38° W 06:23:57 10° SSW
Helios 1A Rocket 3.8 06:15:18 10° NNE 06:19:24 56° ESE 06:23:27 10° S
Cosmos 1328 Rocket 4.3 06:16:03 10° S 06:20:26 60° E 06:24:50 10° NNE
Cosmos 1484 Rocket 3.6 06:17:14 10° N 06:20:42 30° WNW 06:24:11 10° SW
STARLINK-1123 4.4 06:16:55 10° SW 06:20:51 48° SSE 06:24:48 10° ENE
Cosmos 1140 Rocket 3.5 06:16:31 10° SW 06:21:43 62° WNW 06:26:57 10° NNE
STARLINK-1136 2.7 06:19:53 18° W 06:21:49 62° SSW 06:24:35 10° ESE
Cosmos 921 Rocket 4.2 06:18:56 10° NW 06:22:19 22° W 06:25:38 10° SSW
USA 215 3.6 06:16:03 10° ENE 06:22:27 59° N 06:28:45 11° WNW
Cosmos 1954 Rocket 4.0 06:17:15 10° SSW 06:22:36 83° WNW 06:27:58 10° NNE
MOS 1-B 4.3 06:17:19 10° NNE 06:23:08 70° WNW 06:28:54 10° SSW
Cosmos 407 Rocket 3.8 06:18:24 10° SW 06:23:31 47° WNW 06:28:38 10° NNE
Cosmos 2333 Rocket 4.3 06:21:40 10° NNW 06:23:51 12° N 06:26:02 10° NNE
GEOS 3 Rocket 3.7 06:19:08 10° NE 06:24:24 68° NW 06:29:42 10° WSW
STARLINK-1170 2.6 06:23:50 16° W 06:25:43 57° SSW 06:28:18 10° ESE
STARLINK-1097 4.3 06:22:06 10° SW 06:26:05 51° SSE 06:30:04 10° ENE
USA 116 4.1 06:24:06 10° SSW 06:26:50 27° W 06:29:34 10° NW
Cosmos 1340 2.6 06:23:11 10° NNW 06:26:58 83° WSW 06:30:43 10° S
STARLINK-1070 3.0 06:25:55 10° WSW 06:28:47 64° SSE 06:31:43 10° ENE
STARLINK-1124 2.9 06:26:14 11° WSW 06:29:00 72° SSE 06:31:55 10° ENE
STARLINK-1066 3.0 06:26:28 10° WSW 06:29:20 65° SSE 06:32:15 10° ENE
STARLINK-1081 3.0 06:26:41 10° WSW 06:29:34 65° SSE 06:32:28 10° ENE
STARLINK-1069 3.0 06:27:07 10° WSW 06:30:01 65° SSE 06:32:56 10° ENE
STARLINK-1085 3.0 06:27:19 10° WSW 06:30:14 65° SSE 06:33:09 10° ENE
STARLINK-1086 3.0 06:27:37 10° WSW 06:30:31 66° SSE 06:33:26 10° ENE
STARLINK-1095 3.0 06:27:47 10° WSW 06:30:41 66° SSE 06:33:37 10° ENE
STARLINK-1077 3.0 06:27:58 10° WSW 06:30:52 66° SSE 06:33:47 10° ENE
STARLINK-1099 4.2 06:26:58 10° SW 06:30:57 54° SSE 06:34:57 10° ENE
STARLINK-1075 3.0 06:28:14 10° WSW 06:31:09 66° SSE 06:34:03 10° ENE
STARLINK-1093 3.0 06:28:27 10° WSW 06:31:22 66° SSE 06:34:17 10° ENE
STARLINK-1074 3.0 06:28:42 10° WSW 06:31:37 66° SSE 06:34:32 10° ENE
STARLINK-1087 2.9 06:28:55 10° WSW 06:31:49 67° SSE 06:34:44 10° ENE
STARLINK-1088 2.9 06:29:06 10° WSW 06:32:00 67° SSE 06:34:55 10° ENE
STARLINK-1115 2.9 06:29:22 10° WSW 06:32:16 67° SSE 06:35:11 10° ENE
STARLINK-1076 2.9 06:29:36 10° WSW 06:32:29 67° SSE 06:35:25 10° ENE
STARLINK-1092 2.9 06:29:48 10° WSW 06:32:43 67° SSE 06:35:38 10° ENE
STARLINK-1080 2.9 06:30:01 10° WSW 06:32:55 67° SSE 06:35:51 10° ENE
STARLINK-1090 2.9 06:30:16 10° WSW 06:33:10 68° SSE 06:36:05 10° ENE
STARLINK-1089 2.9 06:30:31 10° WSW 06:33:26 68° SSE 06:36:21 10° ENE
Cosmos 220 Rocket 3.9 06:29:11 10° NNW 06:33:27 88° WSW 06:37:39 10° SSE
STARLINK-1107 2.9 06:30:44 10° WSW 06:33:37 68° SSE 06:36:33 10° ENE
STARLINK-1109 2.9 06:30:55 10° WSW 06:33:49 68° SSE 06:36:45 10° ENE
STARLINK-1091 2.9 06:31:10 10° WSW 06:34:05 68° SSE 06:37:00 10° ENE
STARLINK-1072 2.9 06:31:21 10° WSW 06:34:16 69° SSE 06:37:11 10° ENE
STARLINK-1096 2.9 06:31:35 10° WSW 06:34:29 69° SSE 06:37:25 10° ENE
STARLINK-1079 2.9 06:31:49 10° WSW 06:34:43 69° SSE 06:37:39 10° ENE
STARLINK-1116 2.9 06:32:03 10° WSW 06:34:58 69° SSE 06:37:54 10° ENE
STARLINK-1094 2.9 06:32:30 10° WSW 06:35:25 69° SSE 06:38:21 10° ENE
STARLINK-1117 2.9 06:32:43 10° WSW 06:35:38 70° SSE 06:38:34 10° ENE
STARLINK-1104 4.2 06:31:46 10° SW 06:35:46 57° SSE 06:39:48 10° ENE
STARLINK-1078 2.9 06:32:58 10° WSW 06:35:52 70° SSE 06:38:48 10° ENE
Cosmos 540 Rocket 4.2 06:30:50 10° NNW 06:35:57 57° ENE 06:41:03 10° SE
Cosmos 2061 Rocket 4.4 06:30:10 10° NNW 06:36:02 42° W 06:41:49 10° SSW
STARLINK-1108 2.9 06:33:11 10° WSW 06:36:05 70° SSE 06:39:01 10° ENE
STARLINK-1071 2.9 06:33:23 10° WSW 06:36:17 70° SSE 06:39:12 10° ENE
STARLINK-1110 2.9 06:33:39 10° WSW 06:36:34 70° SSE 06:39:30 10° ENE
STARLINK-1122 2.9 06:34:03 10° WSW 06:36:57 71° SSE 06:39:53 10° ENE
Cosmos 1633 Rocket 3.3 06:32:48 10° NNW 06:37:02 49° W 06:41:15 10° SSW
STARLINK-1126 2.9 06:34:16 10° WSW 06:37:12 71° SSE 06:40:07 10° ENE
STARLINK-1082 2.9 06:34:31 10° WSW 06:37:26 71° SSE 06:40:22 10° ENE
STARLINK-1100 2.9 06:34:45 10° WSW 06:37:40 71° SSE 06:40:36 10° ENE
STARLINK-1083 2.9 06:34:58 10° WSW 06:37:54 71° SSE 06:40:49 10° ENE
COSMO-SKYMED 1 3.9 06:34:59 10° SW 06:38:05 19° W 06:41:12 10° NW
STARLINK-1125 2.9 06:35:10 10° WSW 06:38:05 72° SSE 06:41:01 10° ENE
Cosmos 2221 3.9 06:35:10 10° WSW 06:38:11 18° WNW 06:41:14 10° NNW
STARLINK-1162 3.2 06:35:20 11° WNW 06:38:23 61° SSW 06:41:35 10° ESE
Cosmos 1346 Rocket 2.7 06:35:09 10° NNW 06:39:05 77° W 06:42:57 10° S
STARLINK-1144 4.1 06:36:11 10° SW 06:40:13 60° SSE 06:44:15 10° ENE
STARLINK-1157 3.2 06:37:20 10° WNW 06:40:28 59° SSW 06:43:39 10° ESE
Cosmos 1666 Rocket 4.1 06:36:24 10° NNW 06:40:32 38° W 06:44:37 10° SSW
Cosmos 1515 Rocket 4.3 06:36:20 10° S 06:40:42 60° E 06:45:05 10° NNE
Cosmos 1933 Rocket 3.7 06:36:45 10° N 06:41:09 81° E 06:45:29 10° SSE
Cosmos 2208 Rocket 4.3 06:36:26 10° NNW 06:41:45 76° ENE 06:46:57 10° SSE
Cosmos 1725 Rocket 4.2 06:36:00 10° NNW 06:41:57 48° W 06:47:56 10° SSW
Cosmos 2322 Rocket 4.4 06:39:37 10° NNW 06:42:39 14° NNE 06:45:42 10° NE
STARLINK-1159 3.2 06:39:32 10° WNW 06:42:43 58° SSW 06:45:55 10° ESE
STARLINK-1128 4.0 06:40:45 10° WSW 06:44:45 63° SSE 06:48:46 10° ENE
STARLINK-1171 3.3 06:41:52 10° WNW 06:45:03 56° SSW 06:48:15 10° SE
STARLINK-1103 4.0 06:41:25 10° WSW 06:45:28 63° SSE 06:49:32 10° ENE
STARLINK-1155 3.3 06:44:03 10° WNW 06:47:13 55° SSW 06:50:24 10° SE
Cosmos 2237 Rocket 4.1 06:45:17 10° NW 06:47:53 13° NNW 06:50:29 10° N
PAYLOAD B 4.4 06:42:38 10° N 06:48:05 55° WNW 06:53:29 10° SW
STARLINK-1179 3.2 06:46:20 10° W 06:48:51 39° SSW 06:51:23 10° SE
Iridium 51 4.2 06:45:08 10° SSW 06:48:55 58° W 06:52:29 10° N
Cosmos 1238 Rocket 4.5 06:43:40 10° NNW 06:48:56 31° W 06:53:34 10° SW
Cosmos 2123 Rocket 4.1 06:42:52 10° SSW 06:49:03 56° WNW 06:55:16 10° N
STARLINK-1176 3.3 06:46:54 10° W 06:49:27 39° SSW 06:51:59 10° SE
STARLINK-1166 3.3 06:46:22 10° WNW 06:49:33 53° SSW 06:52:43 10° SE
STARLINK-1113 3.9 06:45:38 10° WSW 06:49:39 66° SSE 06:53:41 10° ENE
STARLINK-1101 4.0 06:46:16 10° WSW 06:50:19 66° SSE 06:54:25 10° ENE
Envisat 3.9 06:45:58 10° NNE 06:50:59 56° E 06:55:59 10° S
Meteor 1-25 Rocket 4.3 06:46:51 10° NNW 06:52:28 90° E 06:58:01 10° S
